Weather History for Vero Beach, FL

Change the Weather History Date:

Tuesday, February 19, 2013

  Actual Average Record
Temperature  
Mean Temperature 64 °F 65 °F  
Max Temperature 80 °F 75 °F 87 °F (1992)
Min Temperature 48 °F 55 °F 32 °F (1958)
Degree Days  
Heating Degree Days 1 3  
Month to date heating degree days 80 71  
Since 1 July heating degree days 228 358  
Cooling Degree Days 0 3  
Month to date cooling degree days 40 49  
Year to date cooling degree days 174 110  
Growing Degree Days 14 (Base 50)    
Moisture  
Dew Point 55 °F    
Average Humidity 67    
Maximum Humidity 93    
Minimum Humidity 40    
Precipitation  
Precipitation 0.02 in 0.08 in 1.43 in (1968)
Month to date precipitation 0.99 1.76  
Year to date precipitation 2.51 4.26  
Sea Level Pressure  
Sea Level Pressure 30.16 in    
Wind  
Wind Speed 6 mph (SSW)    
Max Wind Speed 17 mph    
Max Gust Speed 23 mph    
Visibility 10 miles    
Events Rain    
T = Trace of Precipitation, MM = Missing Value Source: NWS Daily Summary

Daily Weather History Graph

Daily Weather History Graph

Search for Another Location

Airport:

Trip Planner

Search our weather history database for the weather conditions in past years. The results will help you decide how hot, cold, wet, or windy it might be!

Date:

Astronomy

Feb. 19, 2013 Rise Set
Actual Time 6:55 AM EST 6:16 PM EST
Civil Twilight 6:31 AM EST 6:39 PM EST
Nautical Twilight 6:04 AM EST 7:07 PM EST
Astronomical Twilight 5:37 AM EST 7:34 PM EST
Moon 1:01 PM EST (2/19) 2:10 AM EST (2/19)
Length of Visible Light 12h 08m
Length of Day
11h 20m
Waxing Gibbous, 67% of the Moon is Illuminated
Feb 19
Waxing Gibbous
Feb 25
Full
Mar 4
Last Quarter
Mar 11
New
Mar 19
First Quarter

Hourly Weather History & Observations

Time (EST) Temp. Dew Point Humidity Pressure Visibility Wind Dir Wind Speed Gust Speed Precip Events Conditions
12:53 AM 48.9 °F 44.1 °F 83% 30.22 in 10.0 mi Calm Calm - N/A   Clear
1:53 AM 51.1 °F 46.9 °F 86% 30.21 in 10.0 mi SE 4.6 mph - N/A   Scattered Clouds
2:53 AM 61.0 °F 51.1 °F 70% 30.19 in 10.0 mi ESE 4.6 mph - N/A   Partly Cloudy
3:53 AM 55.0 °F 50.0 °F 83% 30.18 in 10.0 mi Calm Calm - N/A   Overcast
4:53 AM 55.0 °F 51.1 °F 86% 30.19 in 10.0 mi Calm Calm - N/A   Mostly Cloudy
5:53 AM 57.0 °F 53.1 °F 87% 30.19 in 6.0 mi WSW 5.8 mph - 0.00 in Rain Light Rain
6:43 AM 62.6 °F 57.2 °F 82% 30.20 in 9.0 mi South 4.6 mph - 0.02 in Rain Light Rain
6:51 AM 62.6 °F 57.2 °F 82% 30.20 in 10.0 mi South 4.6 mph - 0.02 in Rain Light Rain
6:53 AM 62.1 °F 57.9 °F 86% 30.19 in 10.0 mi South 4.6 mph - 0.02 in   Overcast
7:53 AM 63.0 °F 60.1 °F 90% 30.19 in 10.0 mi Calm Calm - N/A   Scattered Clouds
8:53 AM 66.9 °F 60.1 °F 79% 30.20 in 10.0 mi South 4.6 mph - N/A   Scattered Clouds
9:53 AM 70.0 °F 57.9 °F 65% 30.20 in 10.0 mi SSE 4.6 mph - N/A   Clear
10:53 AM 75.0 °F 54.0 °F 48% 30.20 in 10.0 mi SSW 9.2 mph - N/A   Clear
11:53 AM 77.0 °F 52.0 °F 42% 30.19 in 10.0 mi SSW 13.8 mph 18.4 mph N/A   Scattered Clouds
1:53 PM 79.0 °F 53.1 °F 40% 30.13 in 10.0 mi SW 16.1 mph 23.0 mph N/A   Scattered Clouds
2:53 PM 77.0 °F 55.0 °F 47% 30.11 in 10.0 mi WSW 8.1 mph - N/A   Scattered Clouds
3:53 PM 77.0 °F 55.9 °F 48% 30.09 in 10.0 mi SSW 9.2 mph - N/A   Scattered Clouds
4:53 PM 78.1 °F 57.0 °F 48% 30.08 in 10.0 mi WSW 6.9 mph - N/A   Scattered Clouds
5:53 PM 75.0 °F 57.9 °F 55% 30.09 in 10.0 mi SSW 5.8 mph - N/A   Partly Cloudy
7:53 PM 70.0 °F 57.9 °F 65% 30.11 in 10.0 mi SSW 4.6 mph - N/A   Scattered Clouds
8:53 PM 69.1 °F 57.9 °F 68% 30.12 in 10.0 mi SW 4.6 mph - N/A   Overcast
9:53 PM 68.0 °F 57.0 °F 68% 30.13 in 10.0 mi WSW 3.5 mph - N/A   Overcast
10:53 PM 64.9 °F 57.0 °F 75% 30.12 in 10.0 mi SSW 3.5 mph - N/A   Clear
11:53 PM 62.1 °F 55.9 °F 80% 30.11 in 10.0 mi SW 3.5 mph - N/A   Clear